Regional Weather Roundup
Issued by NWS Albany, NY

Home | Current Version | Previous Version | Graphics & Text | Print | Product List | Glossary Off
Versions: 1 2 3 4 5 6 7 8 9 10 11 12 13 14 15 16 17 18 19 20 21 22 23 24 25 26 27

000
ASUS41 KALY 231810
RWRALY

NEW YORK STATE HOURLY WEATHER ROUNDUP
NATIONAL WEATHER SERVICE ALBANY NY
200 PM EDT TUE MAY 23 2017

NOTE: "FAIR" INDICATES FEW OR NO CLOUDS BELOW 12,000 FEET WITH NO
SIGNIFICANT WEATHER AND/OR NO OBSTRUCTIONS TO VISIBILITY.

NYZ032-033-038>043-046>054-057>066-NYZ062>081-082-084-231900-
EAST


CITY           SKY/WX    TMP DP  RH WIND       PRES   REMARKS
ALBANY         PTSUNNY   69  46  43 CALM      29.89F
GLENS FALLS    NOT AVBL
POUGHKEEPSIE   CLOUDY    66  49  54 N6        29.89F
NEWBURGH       PTSUNNY   64  54  68 VRB6      29.92F
MONTGOMERY     CLOUDY    66  47  50 NE3       29.90F
WHITE PLAINS   CLOUDY    67  48  50 NW6       29.89F
ISLIP          CLOUDY    68  48  48 VRB6      29.90F
NEW YORK CITY  CLOUDY    68  47  46 NW7       29.90F
CENTRAL PARK   CLOUDY    66  50  56 VRB3      29.93F
$$

NYZ005>009-017-018-044>046-055-056-231900-
CENTRAL


CITY           SKY/WX    TMP DP  RH WIND       PRES   REMARKS
FULTON         CLOUDY    71  48  43 S8        29.87F
SYRACUSE       CLOUDY    70  48  45 CALM      29.86F
ROME           SUNNY     68  50  52 CALM      29.89F
ELMIRA         MOSUNNY   71  47  42 CALM      29.88F
BINGHAMTON     CLOUDY    66  46  48 N6        29.91F
MONTICELLO     CLOUDY    61  48  63 S7        29.94S
$$

NYZ026>034-041>043-087-231900-
NORTH


CITY           SKY/WX    TMP DP  RH WIND       PRES   REMARKS
WATERTOWN      MOSUNNY   67  53  61 W10       29.86F
FORT DRUM      NOT AVBL
OGDENSBURG     FAIR      70  48  45 SW10      29.84F
MASSENA        PTSUNNY   69  52  54 SW8       29.84F
SARANAC LAKE   CLOUDY    62  45  53 W7        29.85F
PLATTSBURGH    CLOUDY    65  47  52 SE16      29.84F
$$

NYZ001>004-010>016-019>021-085-231900-
WEST


CITY           SKY/WX    TMP DP  RH WIND       PRES   REMARKS
NIAGARA FALLS  SUNNY     73  48  41 SW13      29.85F
BUFFALO        MOSUNNY   70  48  45 W9        29.86F
DUNKIRK        SUNNY     67  51  56 NW9       29.86F
JAMESTOWN      SUNNY     66  45  45 CALM      29.88F
WELLSVILLE     SUNNY     68  45  43 VRB6      29.91F
ROCHESTER      MOSUNNY   73  52  47 SW10      29.86F
PENN YAN       MOSUNNY   70  45  40 VRB3      29.89F
$$

             KEY
       WCI = WIND CHILL INDEX
       VSB = VISIBILITY
       HX  = HEAT INDEX
$$




USA.gov is the U.S. government's official web portal to all federal, state and local government web resources and services.